Clinton, IA

11:47 PM CDT on April 29, 2017 (GMT -0500)
Clinton Municipal

Weather History for KCWI - November, 2013

Change the Weather History Date:

Saturday, November 16, 2013

  Actual Average Record
Temperature  
Mean Temperature 48 °F -  
Max Temperature 59 °F 48 °F 71 °F (1952)
Min Temperature 37 °F 30 °F 5 °F (1959)
Degree Days  
Heating Degree Days 17    
Moisture  
Dew Point 46 °F    
Average Humidity 83    
Maximum Humidity 88    
Minimum Humidity 75    
Precipitation  
Precipitation 0.01 in - - ()
Sea Level Pressure  
Sea Level Pressure 29.66 in    
Wind  
Wind Speed 15 mph (South)    
Max Wind Speed 28 mph    
Max Gust Speed 36 mph    
Visibility 9 miles    
Events Thunderstorm    
Averages and records for this station are not official NWS values.
T = Trace of Precipitation, MM = Missing Value Source: NWS Daily Summary

Daily Weather History Graph

Daily Weather History Graph

Search for Another Location

Airport or City:

Trip Planner

Search our weather history database for the weather conditions in past years. The results will help you decide how hot, cold, wet, or windy it might be!

Date:

Astronomy

Nov. 16, 2013 Rise Set
Actual Time 6:52 AM CST 4:39 PM CST
Civil Twilight 6:22 AM CST 5:09 PM CST
Nautical Twilight 5:48 AM CST 5:43 PM CST
Astronomical Twilight 5:15 AM CST 6:16 PM CST
Moon 4:15 PM CST (11/16) 5:47 AM CST (11/16)
Length of Visible Light 10h 47m
Length of Day
9h 47m
Waxing Gibbous, 99% of the Moon is Illuminated
Nov 16
Waxing Gibbous
Nov 17
Full
Nov 25
Last Quarter
Dec 2
New
Dec 9
First Quarter

Hourly Weather History & Observations

Time (CST) Temp. Windchill Dew Point Humidity Pressure Visibility Wind Dir Wind Speed Gust Speed Precip Events Conditions
12:15 AM 39.2 °F 32.5 °F 32.0 °F 75% 29.87 in 10.0 mi SSE 10.4 mph - N/A   Clear
12:35 AM 39.2 °F 33.6 °F 32.0 °F 75% 29.88 in 10.0 mi South 8.1 mph - N/A   Clear
12:55 AM 37.4 °F 31.4 °F 32.0 °F 81% 29.87 in 10.0 mi South 8.1 mph - N/A   Clear
1:15 AM 39.2 °F 32.5 °F 33.8 °F 81% 29.86 in 10.0 mi SSE 10.4 mph - N/A   Clear
1:35 AM 39.2 °F 32.0 °F 33.8 °F 81% 29.87 in 10.0 mi South 11.5 mph - N/A   Clear
1:55 AM 39.2 °F 32.0 °F 33.8 °F 81% 29.86 in 10.0 mi SSE 11.5 mph - N/A   Clear
2:15 AM 39.2 °F 32.5 °F 33.8 °F 81% 29.86 in 10.0 mi SSE 10.4 mph - N/A   Clear
2:35 AM 37.4 °F 30.8 °F 32.0 °F 81% 29.85 in 10.0 mi SE 9.2 mph - N/A   Clear
2:55 AM 39.2 °F 32.5 °F 33.8 °F 81% 29.85 in 10.0 mi SE 10.4 mph - N/A   Clear
3:15 AM 37.4 °F 30.3 °F 33.8 °F 87% 29.86 in 10.0 mi SSE 10.4 mph - N/A   Mostly Cloudy
3:35 AM 39.2 °F 32.5 °F 35.6 °F 87% 29.86 in 10.0 mi South 10.4 mph - N/A   Overcast
3:55 AM 39.2 °F 33.0 °F 35.6 °F 87% 29.85 in 10.0 mi South 9.2 mph - N/A   Overcast
4:15 AM 39.2 °F 34.2 °F 35.6 °F 87% 29.84 in 7.0 mi SSE 6.9 mph - N/A   Overcast
4:35 AM 39.2 °F 33.0 °F 35.6 °F 87% 29.84 in 5.0 mi SE 9.2 mph - N/A   Overcast
4:55 AM 41.0 °F 34.3 °F 37.4 °F 87% 29.82 in 3.0 mi SE 11.5 mph - N/A   Overcast
5:15 AM 42.8 °F 36.6 °F 37.4 °F 81% 29.81 in 5.0 mi SE 11.5 mph - N/A   Overcast
5:35 AM 42.8 °F 35.1 °F 39.2 °F 87% 29.78 in 5.0 mi SE 16.1 mph - N/A   Overcast
5:55 AM 42.8 °F 35.8 °F 39.2 °F 87% 29.78 in 5.0 mi SE 13.8 mph - N/A   Overcast
6:15 AM 44.6 °F 38.4 °F 39.2 °F 81% 29.78 in 6.0 mi SSE 12.7 mph - N/A   Overcast
6:35 AM 44.6 °F 37.8 °F 41.0 °F 87% 29.78 in 6.0 mi SSE 15.0 mph - N/A   Overcast
6:55 AM 46.4 °F 40.7 °F 42.8 °F 87% 29.78 in 5.0 mi SSE 12.7 mph - N/A   Overcast
7:15 AM 46.4 °F 40.7 °F 42.8 °F 87% 29.77 in 5.0 mi SE 12.7 mph - N/A   Overcast
7:35 AM 46.4 °F 39.8 °F 42.8 °F 87% 29.76 in 5.0 mi SE 16.1 mph - N/A   Overcast
7:55 AM 46.4 °F 39.5 °F 42.8 °F 87% 29.75 in 5.0 mi SE 17.3 mph - N/A   Overcast
8:15 AM 46.4 °F 40.4 °F 42.8 °F 87% 29.75 in 6.0 mi SSE 13.8 mph - N/A   Overcast
8:35 AM 46.4 °F 40.7 °F 42.8 °F 87% 29.75 in 7.0 mi SSE 12.7 mph 17.3 mph N/A Thunderstorm Overcast
8:55 AM 48.2 °F - 42.8 °F 82% 29.75 in 7.0 mi SSE 13.8 mph - N/A   Overcast
9:15 AM 48.2 °F - 44.6 °F 87% 29.74 in 7.0 mi SSE 13.8 mph - N/A   Overcast
9:35 AM 48.2 °F - 44.6 °F 87% 29.73 in 7.0 mi SSE 13.8 mph - N/A   Overcast
9:55 AM 50.0 °F - 44.6 °F 82% 29.72 in 8.0 mi SSE 16.1 mph - N/A   Overcast
10:15 AM 51.8 °F - 46.4 °F 82% 29.71 in 9.0 mi SSE 17.3 mph 23.0 mph N/A   Overcast
10:35 AM 51.8 °F - 46.4 °F 82% 29.69 in 9.0 mi SSE 16.1 mph 23.0 mph N/A   Overcast
10:55 AM 53.6 °F - 46.4 °F 77% 29.68 in 8.0 mi SSE 17.3 mph 21.9 mph N/A   Overcast
11:15 AM 53.6 °F - 48.2 °F 82% 29.67 in 9.0 mi South 20.7 mph 25.3 mph N/A   Overcast
11:35 AM 53.6 °F - 48.2 °F 82% 29.66 in 8.0 mi South 16.1 mph 25.3 mph N/A   Overcast
11:55 AM 53.6 °F - 48.2 °F 82% 29.64 in 8.0 mi South 20.7 mph 24.2 mph N/A   Overcast
12:15 PM 53.6 °F - 48.2 °F 82% 29.62 in 8.0 mi South 19.6 mph 26.5 mph N/A   Overcast
12:35 PM 55.4 °F - 50.0 °F 82% 29.59 in 7.0 mi South 18.4 mph 27.6 mph 0.01 in   Overcast
12:55 PM 55.4 °F - 51.8 °F 88% 29.58 in 7.0 mi South 19.6 mph 24.2 mph 0.01 in   Mostly Cloudy
1:15 PM 55.4 °F - 51.8 °F 88% 29.58 in 9.0 mi South 21.9 mph 28.8 mph N/A   Mostly Cloudy
1:35 PM 57.2 °F - 51.8 °F 82% 29.58 in 10.0 mi South 20.7 mph 29.9 mph N/A   Overcast
1:55 PM 59.0 °F - 53.6 °F 82% 29.55 in 10.0 mi South 17.3 mph 32.2 mph N/A   Mostly Cloudy
2:15 PM 59.0 °F - 51.8 °F 77% 29.54 in 10.0 mi South 24.2 mph 28.8 mph N/A   Overcast
2:35 PM 57.2 °F - 51.8 °F 82% 29.54 in 10.0 mi South 24.2 mph 33.4 mph N/A   Overcast
2:55 PM 57.2 °F - 51.8 °F 82% 29.54 in 10.0 mi South 21.9 mph 29.9 mph N/A   Overcast
3:15 PM 57.2 °F - 51.8 °F 82% 29.53 in 10.0 mi South 24.2 mph 28.8 mph N/A   Overcast
3:35 PM 59.0 °F - 51.8 °F 77% 29.54 in 10.0 mi South 18.4 mph 28.8 mph N/A   Overcast
3:55 PM 57.2 °F - 51.8 °F 82% 29.53 in 10.0 mi South 23.0 mph 29.9 mph N/A   Overcast
4:15 PM 57.2 °F - 51.8 °F 82% 29.53 in 10.0 mi South 26.5 mph 32.2 mph N/A   Overcast
4:35 PM 57.2 °F - 51.8 °F 82% 29.52 in 9.0 mi South 24.2 mph 34.5 mph N/A   Overcast
4:55 PM 57.2 °F - 51.8 °F 82% 29.52 in 10.0 mi South 25.3 mph 31.1 mph N/A   Overcast
5:15 PM 57.2 °F - 51.8 °F 82% 29.51 in 10.0 mi South 27.6 mph 33.4 mph N/A   Overcast
5:35 PM 57.2 °F - 51.8 °F 82% 29.50 in 10.0 mi South 24.2 mph 35.7 mph N/A   Scattered Clouds
5:55 PM 57.2 °F - 51.8 °F 82% 29.51 in 10.0 mi South 25.3 mph 31.1 mph N/A   Mostly Cloudy
6:15 PM 57.2 °F - 51.8 °F 82% 29.52 in 10.0 mi South 20.7 mph 26.5 mph N/A   Overcast
6:35 PM 57.2 °F - 51.8 °F 82% 29.52 in 10.0 mi South 25.3 mph 32.2 mph N/A   Overcast
6:55 PM 57.2 °F - 51.8 °F 82% 29.52 in 10.0 mi South 24.2 mph 31.1 mph N/A   Mostly Cloudy
7:15 PM 57.2 °F - 51.8 °F 82% 29.52 in 10.0 mi South 21.9 mph 28.8 mph N/A   Mostly Cloudy
7:35 PM 57.2 °F - 51.8 °F 82% 29.53 in 10.0 mi South 24.2 mph 31.1 mph N/A   Overcast
7:55 PM 57.2 °F - 51.8 °F 82% 29.53 in 10.0 mi South 26.5 mph 34.5 mph N/A   Mostly Cloudy
8:15 PM 57.2 °F - 51.8 °F 82% 29.53 in 10.0 mi South 21.9 mph 31.1 mph N/A   Mostly Cloudy
8:35 PM 57.2 °F - 51.8 °F 82% 29.53 in 10.0 mi SSW 23.0 mph 32.2 mph N/A   Mostly Cloudy
8:55 PM 57.2 °F - 51.8 °F 82% 29.53 in 10.0 mi South 21.9 mph 26.5 mph N/A   Scattered Clouds
9:15 PM 57.2 °F - 51.8 °F 82% 29.54 in 10.0 mi SSW 20.7 mph 31.1 mph N/A   Partly Cloudy
9:35 PM 57.2 °F - 51.8 °F 82% 29.53 in 10.0 mi SSW 21.9 mph 28.8 mph N/A   Partly Cloudy
9:55 PM 57.2 °F - 51.8 °F 82% 29.53 in 10.0 mi SSW 16.1 mph 24.2 mph N/A   Partly Cloudy
10:15 PM 57.2 °F - 51.8 °F 82% 29.52 in 10.0 mi South 20.7 mph 25.3 mph N/A   Clear
10:35 PM 57.2 °F - 51.8 °F 82% 29.52 in 10.0 mi SSW 20.7 mph 28.8 mph N/A   Scattered Clouds
10:55 PM 57.2 °F - 51.8 °F 82% 29.52 in 10.0 mi SSW 23.0 mph 27.6 mph N/A   Mostly Cloudy
11:15 PM 57.2 °F - 51.8 °F 82% 29.53 in 10.0 mi SSW 16.1 mph 29.9 mph N/A   Partly Cloudy
11:35 PM 59.0 °F - 51.8 °F 77% 29.53 in 10.0 mi SSW 21.9 mph 27.6 mph N/A   Partly Cloudy
11:55 PM 59.0 °F - 53.6 °F 82% 29.52 in 10.0 mi SSW 21.9 mph 29.9 mph N/A   Scattered Clouds